• In Deutschland
  • Länderverzeichnis
  • Für 7 Tage
  • Wassertemperatur
  • Satellitenkarten
  • Wetterkarte
  • Widgets
  • user-avatar
    Anmelden

    Stündliche Wetter Erlangen

    Heute, 21 Juli, Samstag

    Zeit Temperatur Niederschläge Wind Luftdruck Luftfeuchtigkeit
    00:00 +21°C° 0,4 mm 1 m/S 733 mmHg 76%
    01:00 +21°C° 0 mm 1 m/S 733 mmHg 77%
    02:00 +20°C° 0,3 mm 1 m/S 733 mmHg 80%
    03:00 +20°C° 0,3 mm 1 m/S 733 mmHg 83%
    04:00 +19°C° 0,3 mm 1 m/S 733 mmHg 86%
    05:00 +20°C° 0,3 mm 1 m/S 733 mmHg 85%
    06:00 +20°C° 0,3 mm 1 m/S 733 mmHg 84%
    07:00 +21°C° 0 mm 1 m/S 733 mmHg 83%
    08:00 +21°C° 0,5 mm 1 m/S 733 mmHg 84%
    09:00 +21°C° 0,5 mm 1 m/S 733 mmHg 85%
    10:00 +20°C° 0,5 mm 2 m/S 734 mmHg 87%
    11:00 +21°C° 0,6 mm 1 m/S 734 mmHg 85%
    12:00 +22°C° 0,6 mm 1 m/S 734 mmHg 84%
    13:00 +22°C° 0,6 mm 1 m/S 734 mmHg 82%
    14:00 +22°C° 0,5 mm 1 m/S 734 mmHg 81%
    15:00 +23°C° 0,5 mm 1 m/S 734 mmHg 80%
    16:00 +23°C° 0,5 mm 1 m/S 733 mmHg 78%
    17:00 +23°C° 0,6 mm 1 m/S 733 mmHg 81%
    18:00 +22°C° 0,6 mm 1 m/S 733 mmHg 84%
    19:00 +22°C° 0,6 mm 1 m/S 733 mmHg 87%
    20:00 +21°C° 0,1 mm 1 m/S 734 mmHg 88%
    21:00 +20°C° 0,1 mm 1 m/S 734 mmHg 90%
    22:00 +19°C° 0,1 mm 1 m/S 734 mmHg 91%
    23:00 +19°C° 0,1 mm 1 m/S 734 mmHg 91%

    Morgen, 22 Juli, Sonntag

    Zeit Temperatur Niederschläge Wind Luftdruck Luftfeuchtigkeit
    00:00 +18°C° 0,1 mm 1 m/S 734 mmHg 92%
    01:00 +18°C° 0,1 mm 1 m/S 734 mmHg 92%
    02:00 +18°C° 0,2 mm 1 m/S 734 mmHg 92%
    03:00 +18°C° 0,2 mm 1 m/S 734 mmHg 93%
    04:00 +18°C° 0,2 mm 1 m/S 734 mmHg 93%
    05:00 +19°C° 0,1 mm 1 m/S 734 mmHg 93%
    06:00 +19°C° 0,1 mm 1 m/S 734 mmHg 92%
    07:00 +20°C° 0,1 mm 1 m/S 734 mmHg 91%
    08:00 +21°C° 0,1 mm 1 m/S 735 mmHg 85%
    09:00 +22°C° 0,1 mm 1 m/S 735 mmHg 80%
    10:00 +24°C° 0,1 mm 1 m/S 735 mmHg 75%
    11:00 +25°C° 0,4 mm 1 m/S 735 mmHg 71%
    12:00 +26°C° 0,4 mm 1 m/S 735 mmHg 68%
    13:00 +27°C° 0,4 mm 1 m/S 735 mmHg 65%
    14:00 +26°C° 1,2 mm 1 m/S 735 mmHg 66%
    15:00 +26°C° 1,2 mm 1 m/S 735 mmHg 68%
    16:00 +26°C° 1,2 mm 1 m/S 734 mmHg 69%
    17:00 +25°C° 1,1 mm 1 m/S 734 mmHg 74%
    18:00 +24°C° 1,1 mm 1 m/S 734 mmHg 78%
    19:00 +23°C° 1,1 mm 1 m/S 734 mmHg 82%
    20:00 +22°C° 0,1 mm 1 m/S 735 mmHg 84%
    21:00 +21°C° 0,1 mm 1 m/S 735 mmHg 86%
    22:00 +20°C° 0,1 mm 1 m/S 735 mmHg 88%
    23:00 +20°C° 0 mm 1 m/S 735 mmHg 88%

    übermorgen, 23 Juli, Montag

    Zeit Temperatur Niederschläge Wind Luftdruck Luftfeuchtigkeit
    00:00 +19°C° 0 mm 1 m/S 735 mmHg 89%
    01:00 +17°C° 0 mm 0 m/S 735 mmHg 89%
    02:00 +16°C° 0 mm 0 m/S 736 mmHg 89%
    03:00 +16°C° 0 mm 0 m/S 736 mmHg 89%
    04:00 +15°C° 0 mm 0 m/S 736 mmHg 90%
    05:00 +18°C° 0,1 mm 1 m/S 736 mmHg 88%
    06:00 +19°C° 0,1 mm 1 m/S 736 mmHg 87%
    07:00 +20°C° 0,1 mm 1 m/S 737 mmHg 85%
    08:00 +22°C° 0,1 mm 1 m/S 737 mmHg 78%
    09:00 +24°C° 0,1 mm 1 m/S 737 mmHg 70%
    10:00 +26°C° 0,1 mm 1 m/S 737 mmHg 62%
    11:00 +27°C° 0,2 mm 1 m/S 737 mmHg 58%
    12:00 +28°C° 0,2 mm 1 m/S 737 mmHg 54%
    13:00 +29°C° 0,2 mm 1 m/S 737 mmHg 49%
    14:00 +29°C° 0,2 mm 1 m/S 737 mmHg 52%
    15:00 +28°C° 0,2 mm 1 m/S 737 mmHg 55%
    16:00 +28°C° 0,2 mm 2 m/S 736 mmHg 58%
    17:00 +27°C° 0,2 mm 2 m/S 737 mmHg 64%
    18:00 +26°C° 0,2 mm 1 m/S 737 mmHg 69%
    19:00 +25°C° 0,2 mm 1 m/S 737 mmHg 74%
    20:00 +24°C° 0 mm 1 m/S 737 mmHg 78%
    21:00 +22°C° 0 mm 1 m/S 737 mmHg 81%
    22:00 +21°C° 0 mm 1 m/S 737 mmHg 85%
    23:00 +20°C° 0 mm 1 m/S 737 mmHg 86%

    24 Juli, Dienstag

    Zeit Temperatur Niederschläge Wind Luftdruck Luftfeuchtigkeit
    00:00 +20°C° 0 mm 1 m/S 737 mmHg 88%
    01:00 +19°C° 0 mm 1 m/S 737 mmHg 89%
    02:00 +19°C° 0 mm 1 m/S 737 mmHg 89%
    03:00 +18°C° 0 mm 1 m/S 737 mmHg 90%
    04:00 +18°C° 0 mm 1 m/S 737 mmHg 90%
    05:00 +19°C° 0 mm 1 m/S 737 mmHg 86%
    06:00 +20°C° 0 mm 1 m/S 737 mmHg 83%
    07:00 +21°C° 0 mm 1 m/S 737 mmHg 79%
    08:00 +23°C° 0 mm 1 m/S 737 mmHg 71%
    09:00 +25°C° 0 mm 1 m/S 737 mmHg 64%
    10:00 +27°C° 0 mm 2 m/S 737 mmHg 56%
    11:00 +28°C° 0 mm 1 m/S 736 mmHg 52%
    12:00 +29°C° 0 mm 1 m/S 736 mmHg 49%
    13:00 +30°C° 0 mm 1 m/S 736 mmHg 45%
    14:00 +30°C° 0 mm 1 m/S 736 mmHg 46%
    15:00 +30°C° 0 mm 1 m/S 736 mmHg 47%
    16:00 +30°C° 0 mm 2 m/S 735 mmHg 48%
    17:00 +29°C° 0 mm 2 m/S 735 mmHg 53%
    18:00 +28°C° 0 mm 2 m/S 735 mmHg 59%
    19:00 +26°C° 0 mm 2 m/S 735 mmHg 64%
    20:00 +25°C° 0 mm 2 m/S 735 mmHg 69%
    21:00 +23°C° 0 mm 2 m/S 736 mmHg 74%
    22:00 +21°C° 0 mm 2 m/S 736 mmHg 78%
    23:00 +21°C° 0 mm 1 m/S 736 mmHg 80%

    25 Juli, Mittwoch

    Zeit Temperatur Niederschläge Wind Luftdruck Luftfeuchtigkeit
    00:00 +21°C° 0 mm 1 m/S 736 mmHg 82%
    01:00 +20°C° 0 mm 1 m/S 736 mmHg 84%
    02:00 +20°C° 0 mm 1 m/S 736 mmHg 85%
    03:00 +19°C° 0 mm 1 m/S 736 mmHg 86%
    04:00 +19°C° 0 mm 1 m/S 736 mmHg 87%
    05:00 +20°C° 0 mm 1 m/S 736 mmHg 82%
    06:00 +22°C° 0 mm 1 m/S 736 mmHg 78%
    07:00 +23°C° 0 mm 1 m/S 737 mmHg 74%
    08:00 +25°C° 0 mm 1 m/S 737 mmHg 67%
    09:00 +27°C° 0 mm 1 m/S 737 mmHg 61%
    10:00 +28°C° 0 mm 1 m/S 737 mmHg 54%
    11:00 +29°C° 0 mm 1 m/S 737 mmHg 50%
    12:00 +30°C° 0 mm 1 m/S 736 mmHg 47%
    13:00 +31°C° 0 mm 1 m/S 736 mmHg 44%
    14:00 +31°C° 0 mm 1 m/S 736 mmHg 44%
    15:00 +31°C° 0 mm 1 m/S 736 mmHg 45%
    16:00 +31°C° 0 mm 1 m/S 736 mmHg 45%
    17:00 +30°C° 0 mm 1 m/S 736 mmHg 51%
    18:00 +28°C° 0 mm 1 m/S 736 mmHg 56%
    19:00 +27°C° 0 mm 1 m/S 736 mmHg 62%
    20:00 +26°C° 0 mm 2 m/S 736 mmHg 66%
    21:00 +24°C° 0 mm 2 m/S 736 mmHg 69%
    22:00 +23°C° 0 mm 2 m/S 737 mmHg 73%
    23:00 +21°C° 0 mm 2 m/S 737 mmHg 75%

    26 Juli, Donnerstag

    Zeit Temperatur Niederschläge Wind Luftdruck Luftfeuchtigkeit
    00:00 +22°C° 0 mm 1 m/S 737 mmHg 77%
    01:00 +21°C° 0 mm 1 m/S 737 mmHg 78%
    02:00 +20°C° 0 mm 1 m/S 737 mmHg 79%
    03:00 +20°C° 0 mm 1 m/S 737 mmHg 81%
    04:00 +19°C° 0 mm 1 m/S 736 mmHg 82%
    05:00 +21°C° 0 mm 1 m/S 737 mmHg 78%
    06:00 +22°C° 0 mm 1 m/S 737 mmHg 74%
    07:00 +23°C° 0 mm 1 m/S 737 mmHg 71%
    08:00 +25°C° 0 mm 1 m/S 737 mmHg 64%
    09:00 +27°C° 0 mm 2 m/S 737 mmHg 57%
    10:00 +29°C° 0 mm 2 m/S 738 mmHg 49%
    11:00 +29°C° 0 mm 2 m/S 737 mmHg 46%
    12:00 +30°C° 0 mm 2 m/S 737 mmHg 43%
    13:00 +31°C° 0 mm 2 m/S 737 mmHg 39%
    14:00 +31°C° 0 mm 2 m/S 737 mmHg 40%
    15:00 +31°C° 0 mm 2 m/S 737 mmHg 40%
    16:00 +31°C° 0 mm 2 m/S 737 mmHg 41%
    17:00 +30°C° 0 mm 2 m/S 737 mmHg 47%
    18:00 +29°C° 0 mm 2 m/S 737 mmHg 53%
    19:00 +27°C° 0 mm 2 m/S 737 mmHg 59%
    20:00 +26°C° 0 mm 2 m/S 737 mmHg 62%
    21:00 +24°C° 0 mm 2 m/S 737 mmHg 65%
    22:00 +21°C° 0 mm 2 m/S 737 mmHg 68%
    23:00 +21°C° 0 mm 2 m/S 737 mmHg 69%
    Mehr zeigen